Voltar ao catálogo

NOAA 16 DEB

AtivoSSO
NORAD 41220·DEBRIS·🇺🇸 United States

Lançado Sep 21, 2000 de Vandenberg Space Force Base

Loading…

Próximas Passagens (próximas 24 horas)

TLE

AtualizadoSource: Space-Track

Época: Sep 14, 2026, 01:38 UTC

1 41220U 00055DZ  26257.06854424  .00001743  00000-0  78837-3 0  9995
2 41220  98.6657 303.4999 0012689 282.8536  77.1225 14.23281218554830

Acompanhe NOAA 16 DEB em tempo real com AllMySat

Download on the App Store